• In Hungary
  • List of Countries
  • For 7 days
  • Water Temperature
  • Satellite Maps
  • Weather Map
  • News
  • Weather Widgets
  • user-avatar
    Login

    Hourly Weather Krepiec

    Today, 21 July, Saturday

    Time Temperature Precipitation Wind Pressure Humidity
    00:00 +15°C° 0 mm 4 mps 758 mmHg 83%
    01:00 +15°C° 0 mm 4 mps 758 mmHg 83%
    02:00 +15°C° 0 mm 4 mps 758 mmHg 83%
    03:00 +14°C° 0 mm 4 mps 758 mmHg 84%
    04:00 +14°C° 0 mm 4 mps 758 mmHg 85%
    05:00 +17°C° 0 mm 4 mps 758 mmHg 81%
    06:00 +18°C° 0 mm 4 mps 758 mmHg 77%
    07:00 +20°C° 0 mm 3 mps 758 mmHg 74%
    08:00 +21°C° 0 mm 3 mps 758 mmHg 68%
    09:00 +24°C° 0 mm 3 mps 758 mmHg 62%
    10:00 +26°C° 0 mm 3 mps 758 mmHg 56%
    11:00 +26°C° 0 mm 3 mps 758 mmHg 53%
    12:00 +27°C° 0 mm 3 mps 758 mmHg 51%
    13:00 +28°C° 0 mm 2 mps 758 mmHg 48%
    14:00 +28°C° 0 mm 2 mps 758 mmHg 49%
    15:00 +28°C° 0 mm 2 mps 758 mmHg 50%
    16:00 +28°C° 0 mm 3 mps 758 mmHg 52%
    17:00 +26°C° 0 mm 3 mps 758 mmHg 59%
    18:00 +25°C° 0 mm 3 mps 758 mmHg 67%
    19:00 +22°C° 0 mm 3 mps 758 mmHg 74%
    20:00 +21°C° 0 mm 3 mps 758 mmHg 78%
    21:00 +20°C° 0 mm 2 mps 758 mmHg 82%
    22:00 +18°C° 0 mm 2 mps 758 mmHg 86%
    23:00 +18°C° 0 mm 2 mps 758 mmHg 86%

    Tomorrow, 22 July, Sunday

    Time Temperature Precipitation Wind Pressure Humidity
    00:00 +17°C° 0 mm 2 mps 758 mmHg 85%
    01:00 +17°C° 0 mm 2 mps 758 mmHg 85%
    02:00 +17°C° 0 mm 2 mps 758 mmHg 85%
    03:00 +17°C° 0 mm 2 mps 758 mmHg 85%
    04:00 +16°C° 0 mm 2 mps 758 mmHg 85%
    05:00 +18°C° 0 mm 2 mps 758 mmHg 81%
    06:00 +20°C° 0 mm 2 mps 759 mmHg 77%
    07:00 +21°C° 0 mm 2 mps 759 mmHg 72%
    08:00 +24°C° 0 mm 2 mps 759 mmHg 67%
    09:00 +25°C° 0 mm 2 mps 759 mmHg 62%
    10:00 +26°C° 0 mm 2 mps 759 mmHg 57%
    11:00 +27°C° 0 mm 2 mps 759 mmHg 55%
    12:00 +27°C° 0 mm 3 mps 759 mmHg 54%
    13:00 +28°C° 0 mm 3 mps 759 mmHg 53%
    14:00 +27°C° 0 mm 3 mps 759 mmHg 54%
    15:00 +27°C° 0 mm 4 mps 759 mmHg 56%
    16:00 +26°C° 0 mm 4 mps 759 mmHg 57%
    17:00 +25°C° 0 mm 3 mps 759 mmHg 63%
    18:00 +24°C° 0 mm 3 mps 759 mmHg 69%
    19:00 +21°C° 0 mm 3 mps 759 mmHg 74%
    20:00 +20°C° 0 mm 2 mps 759 mmHg 78%
    21:00 +19°C° 0 mm 2 mps 759 mmHg 81%
    22:00 +19°C° 0 mm 1 mps 759 mmHg 84%
    23:00 +18°C° 0 mm 1 mps 759 mmHg 83%

    Day after tomorrow, 23 July, Monday

    Time Temperature Precipitation Wind Pressure Humidity
    00:00 +18°C° 0 mm 1 mps 759 mmHg 83%
    01:00 +18°C° 0 mm 1 mps 759 mmHg 82%
    02:00 +18°C° 0 mm 1 mps 759 mmHg 82%
    03:00 +16°C° 0 mm 1 mps 759 mmHg 81%
    04:00 +16°C° 0 mm 1 mps 759 mmHg 80%
    05:00 +19°C° 0 mm 1 mps 759 mmHg 75%
    06:00 +20°C° 0 mm 2 mps 759 mmHg 70%
    07:00 +21°C° 0 mm 2 mps 759 mmHg 64%
    08:00 +23°C° 0 mm 2 mps 759 mmHg 62%
    09:00 +25°C° 0 mm 2 mps 759 mmHg 59%
    10:00 +26°C° 0 mm 2 mps 759 mmHg 56%
    11:00 +26°C° 0 mm 3 mps 759 mmHg 55%
    12:00 +27°C° 0 mm 3 mps 759 mmHg 53%
    13:00 +28°C° 0 mm 3 mps 759 mmHg 52%
    14:00 +27°C° 0.3 mm 3 mps 759 mmHg 55%
    15:00 +27°C° 0.3 mm 3 mps 759 mmHg 59%
    16:00 +26°C° 0.3 mm 3 mps 759 mmHg 62%
    17:00 +25°C° 0.1 mm 2 mps 759 mmHg 67%
    18:00 +24°C° 0.1 mm 2 mps 759 mmHg 72%
    19:00 +23°C° 0.1 mm 2 mps 759 mmHg 78%
    20:00 +22°C° 0 mm 1 mps 759 mmHg 81%
    21:00 +20°C° 0 mm 1 mps 759 mmHg 84%
    22:00 +17°C° 0 mm 0 mps 759 mmHg 87%
    23:00 +19°C° 0 mm 1 mps 759 mmHg 88%

    24 July, Tuesday

    Time Temperature Precipitation Wind Pressure Humidity
    00:00 +19°C° 0 mm 1 mps 759 mmHg 88%
    01:00 +18°C° 0 mm 1 mps 759 mmHg 89%
    02:00 +18°C° 0 mm 1 mps 759 mmHg 90%
    03:00 +17°C° 0 mm 2 mps 759 mmHg 91%
    04:00 +17°C° 0 mm 2 mps 759 mmHg 92%
    05:00 +18°C° 0 mm 2 mps 759 mmHg 88%
    06:00 +20°C° 0 mm 2 mps 759 mmHg 83%
    07:00 +21°C° 0 mm 2 mps 759 mmHg 78%
    08:00 +23°C° 0 mm 2 mps 759 mmHg 72%
    09:00 +25°C° 0 mm 2 mps 759 mmHg 65%
    10:00 +26°C° 0 mm 2 mps 759 mmHg 59%
    11:00 +27°C° 0 mm 2 mps 759 mmHg 57%
    12:00 +27°C° 0 mm 3 mps 759 mmHg 56%
    13:00 +28°C° 0 mm 3 mps 759 mmHg 54%
    14:00 +27°C° 0 mm 3 mps 759 mmHg 57%
    15:00 +27°C° 0 mm 4 mps 759 mmHg 59%
    16:00 +26°C° 0 mm 4 mps 759 mmHg 61%
    17:00 +25°C° 0 mm 3 mps 759 mmHg 67%
    18:00 +24°C° 0 mm 3 mps 759 mmHg 73%
    19:00 +23°C° 0 mm 2 mps 759 mmHg 79%
    20:00 +20°C° 0 mm 2 mps 759 mmHg 83%
    21:00 +19°C° 0 mm 2 mps 759 mmHg 87%
    22:00 +19°C° 0 mm 1 mps 760 mmHg 91%
    23:00 +19°C° 0 mm 1 mps 760 mmHg 91%

    25 July, Wednesday

    Time Temperature Precipitation Wind Pressure Humidity
    00:00 +18°C° 0 mm 2 mps 759 mmHg 91%
    01:00 +18°C° 0 mm 2 mps 759 mmHg 91%
    02:00 +17°C° 0 mm 2 mps 760 mmHg 91%
    03:00 +17°C° 0 mm 2 mps 760 mmHg 90%
    04:00 +17°C° 0 mm 3 mps 760 mmHg 90%
    05:00 +19°C° 0 mm 3 mps 760 mmHg 84%
    06:00 +21°C° 0 mm 3 mps 760 mmHg 79%
    07:00 +22°C° 0 mm 3 mps 760 mmHg 73%
    08:00 +24°C° 0 mm 3 mps 760 mmHg 68%
    09:00 +26°C° 0 mm 3 mps 760 mmHg 62%
    10:00 +27°C° 0 mm 3 mps 760 mmHg 57%
    11:00 +27°C° 0 mm 3 mps 760 mmHg 55%
    12:00 +28°C° 0 mm 3 mps 760 mmHg 54%
    13:00 +28°C° 0 mm 4 mps 760 mmHg 52%
    14:00 +28°C° 0 mm 4 mps 760 mmHg 53%
    15:00 +28°C° 0 mm 4 mps 760 mmHg 54%
    16:00 +27°C° 0 mm 5 mps 760 mmHg 55%
    17:00 +26°C° 0 mm 4 mps 760 mmHg 61%
    18:00 +23°C° 0 mm 4 mps 760 mmHg 67%
    19:00 +22°C° 0 mm 3 mps 760 mmHg 73%
    20:00 +21°C° 0 mm 3 mps 760 mmHg 78%
    21:00 +20°C° 0 mm 3 mps 760 mmHg 82%
    22:00 +18°C° 0 mm 2 mps 760 mmHg 87%
    23:00 +18°C° 0 mm 2 mps 760 mmHg 87%

    26 July, Thursday

    Time Temperature Precipitation Wind Pressure Humidity
    00:00 +18°C° 0 mm 2 mps 760 mmHg 87%
    01:00 +18°C° 0 mm 3 mps 760 mmHg 87%
    02:00 +18°C° 0 mm 3 mps 760 mmHg 87%
    03:00 +17°C° 0 mm 3 mps 760 mmHg 87%
    04:00 +17°C° 0 mm 3 mps 760 mmHg 87%
    05:00 +19°C° 0 mm 3 mps 760 mmHg 83%
    06:00 +21°C° 0 mm 3 mps 760 mmHg 78%
    07:00 +22°C° 0 mm 3 mps 760 mmHg 73%
    08:00 +25°C° 0 mm 3 mps 760 mmHg 69%
    09:00 +26°C° 0 mm 3 mps 760 mmHg 65%
    10:00 +27°C° 0 mm 3 mps 760 mmHg 61%
    11:00 +28°C° 0 mm 3 mps 760 mmHg 60%
    12:00 +28°C° 0 mm 4 mps 760 mmHg 58%
    13:00 +29°C° 0 mm 4 mps 760 mmHg 56%
    14:00 +28°C° 0 mm 4 mps 760 mmHg 58%
    15:00 +28°C° 0 mm 4 mps 760 mmHg 61%
    16:00 +27°C° 0 mm 4 mps 760 mmHg 63%
    17:00 +26°C° 0 mm 4 mps 760 mmHg 69%
    18:00 +25°C° 0 mm 4 mps 760 mmHg 75%
    19:00 +24°C° 0 mm 3 mps 760 mmHg 81%
    20:00 +22°C° 0 mm 3 mps 760 mmHg 86%
    21:00 +20°C° 0 mm 3 mps 760 mmHg 90%
    22:00 +19°C° 0 mm 3 mps 760 mmHg 95%
    23:00 +19°C° 0 mm 3 mps 760 mmHg 95%
    Show more